STARLINK-3332, 50825

Orbit data source: Space-Track

STARLINK-3332, 50825 is a payload satellite owned by SpaceX/Seattle (US) in LEO that was launched on Thu, 06 Jan 2022 UTC via an FALCON 9 launch vehicle from the Air Force Eastern Test Range (AFETR). Payload-class satellites include a variety of spacecraft equipped with specific instruments for various scientific and technological missions. These include communications satellites like Starlink; space stations such as the ISS; scientific satellites like the Hubble; Earth observation satellites from companies like Planet Labs, Umbra, and HawkEye 360; GPS; miniature CubeSats for education and research; and military/defense satellites.

Loading next visibility...
Identifier
50825, 2022-001Y
Orbit
LEO
Country
Flag of USUS
Related business
Manufacturer
SpaceX/Seattle
Mission
Operational Commercial Communications
Bus & Motor
STARLINK, Unknown motor
Mass
297 kg wet, ~275 kg dry
Launch date (UTC)
2022-01-06 (4 years ago)
Launch vehicle
FALCON 9
Launch site
Air Force Eastern Test Range (AFETR)
Object type
Payload
Rocket body
Debris
Shape & HBR
Box + 1 Pan, 10.1 m
Radar Cross Section
13.562 m², Large (>1 m²)

Expand to show TLE details & history
Last TLE update: 2 days ago

TLE from 2 days ago
0 STARLINK-3332
1 50825U 22001Y   26171.41899692  .00000581  00000-0  54578-4 0  9997
2 50825  53.1608  67.8370 0000875  70.8498 289.2588 15.08832330245918
Epoch: 2026-06-20T10:03Z
TLE epoch observation values (Epoch: 2026-06-20T10:03:21.333Z)
Latitude
-0.00005°
Longitude
8.36418°
Altitude
540.459 km
Speed
7.593 km/s
True Right ascension
04h 31m 20s
True Declination
0° 00' 00"
Sunlit
Object was in daylight at epoch
Visualization orbit readout
Latitude
Unknown
Longitude
Unknown
Altitude
Unknown
Speed
Unknown
Apparent Right ascension
Unknown
Apparent Declination
Unknown
Sunlit
N/A
Visualization observer readout
Local Sidereal Time
21:25:11
Azimuth
Unknown
Elevation
Unknown
Doppler factor
Unknown
Orbital elements
Apogee altitude
540.626 km
Perigee altitude
539.415 km
Semi-major axis
6,918.158 km
Eccentricity
0.00009
Inclination
53.1608°
RAAN
67.837°
Arg. of periapsis
70.8498°
True anomaly
289.24933°
Mean anomaly
289.2588°
Eccentric anomaly
289.25407°
Mean motion
3.77188 °/min
Orbital period
95.44 mins
BSTAR
0.000054578
Loading maneuver chart data...
Computing Atmospheric mass density...
Loading historical data...
Loading historical data...
Loading historical data...
Loading historical data...
Loading historical data...
Loading historical data...
Loading historical data...

Documentation

Showing up to 5 results
|